Location: Waldport
(44.4270°N, 124.0680°W)
Time: 22:29:28
(UTC-07:00)

Amateur Radio Satellites - All Passes

Search period start: 15 April 2014 21:59
Search period end: 16 April 2014 21:59
Location: Waldport, 44.4270°N, 124.0680°W

Satellite Date Start Highest point End Downlink Frequencies (MHz)
Time Altitude Azimuth
Saudisat 1A 15 Apr 22:02:47 22:06:52 37° 243° (WSW) 22:10:53 436.775 MHz
MaSat-1 15 Apr 22:10:19 22:11:15 11° 109° (ESE) 22:12:09 437.345 MHz
ISS 15 Apr 22:22:40 22:25:52 38° 20° (NNE) 22:29:02 145.800 FM
FUNcube-1 15 Apr 22:24:28 22:28:22 37° 70° (ENE) 22:32:13 145.950 - 145.970 MHz USB
Oscar 11 15 Apr 22:46:10 22:50:14 41° 262° (W) 22:54:20 145.825 FM, Beacon 2401.500 USB
HO-68 15 Apr 22:53:53 22:59:44 27° 267° (W) 23:05:37 435.675 MHz FM
MaSat-1 15 Apr 23:46:57 23:49:32 28° 301° (WNW) 23:51:52 437.345 MHz
SO-50 15 Apr 23:50:36 23:53:07 14° 32° (NNE) 23:55:38 436.795 FM
ISS 15 Apr 23:59:27 00:02:39 41° 219° (SW) 00:05:50 145.800 FM
FUNcube-1 16 Apr 00:01:45 00:04:55 20° 267° (W) 00:08:05 145.950 - 145.970 MHz USB
Sapphire 16 Apr 01:05:13 01:09:05 20° 106° (ESE) 01:12:58 437.095 MHz 1200 baud AX-25 AFSK
SO-50 16 Apr 01:29:57 01:34:34 66° 52° (NE) 01:39:15 436.795 FM
Oscar 19 16 Apr 01:33:59 01:35:55 12° 87° (E) 01:37:51 437.125 CW, 437.150 USB
Oscar 16 16 Apr 01:40:40 01:43:40 15° 89° (E) 01:46:39 437.025 USB, Beacon 2401.1428
Oscar 10/S400 16 Apr 01:41:24 01:46:38 11° 123° (ESE) 01:52:49 145.825 - 145.975 CW/USB, Beacon 145.810 USB
PCSat 16 Apr 01:48:49 01:54:00 50° 115° (ESE) 01:59:14 145.825 MHz
OPAL 16 Apr 02:04:54 02:09:17 31° 63° (ENE) 02:13:44 ?
Uribyol 2 16 Apr 02:09:02 02:11:48 14° 89° (E) 02:14:34 436.500 FM
KITSAT 1 16 Apr 02:13:50 02:14:32 10° 96° (E) 02:15:14 435.175 FM
UOSAT-12 16 Apr 02:34:55 02:38:47 24° 40° (NE) 02:42:38 437.025 FM, 437.400 FM
AO-27 16 Apr 02:45:54 02:50:28 30° 96° (E) 02:54:59 436.795 MHz FM
Sapphire 16 Apr 02:46:39 02:52:00 63° 304° (NW) 02:57:25 437.095 MHz 1200 baud AX-25 AFSK
ITAMSAT 1 16 Apr 02:57:27 03:02:16 38° 98° (E) 03:07:03 435.822 SSB
TMSAT-1 16 Apr 03:09:44 03:11:18 11° 87° (E) 03:12:51 436.925 FM
Oscar 19 16 Apr 03:10:43 03:15:57 88° 284° (WNW) 03:21:10 437.125 CW, 437.150 USB
SO-50 16 Apr 03:11:44 03:14:40 17° 250° (WSW) 03:17:37 436.795 FM
Oscar 16 16 Apr 03:18:21 03:23:33 72° 287° (WNW) 03:28:43 437.025 USB, Beacon 2401.1428
PCSat 16 Apr 03:32:57 03:37:40 30° 314° (NW) 03:42:24 145.825 MHz
AO-Echo 16 Apr 03:42:50 03:47:43 81° 103° (ESE) 03:52:26 ?
OPAL 16 Apr 03:43:32 03:48:06 35° 261° (W) 03:52:45 ?
Uribyol 2 16 Apr 03:46:41 03:51:51 75° 287° (WNW) 03:57:01 436.500 FM
Gurwin Techsat 1B 16 Apr 03:56:10 04:01:13 43° 98° (E) 04:06:14 435.225 FM
KITSAT 1 16 Apr 04:00:18 04:08:11 58° 115° (ESE) 04:16:06 435.175 FM
Uosat F 16 Apr 04:00:18 04:01:59 12° 88° (E) 04:03:40 435.120 FM
AO-7 16 Apr 04:03:53 04:07:26 13° 86° (E) 04:10:57 29.400 - 29.500 MHz
UOSAT-12 16 Apr 04:14:38 04:19:17 58° 240° (WSW) 04:23:53 437.025 FM, 437.400 FM
JAS-1B 16 Apr 04:21:16 04:25:50 24° 93° (E) 04:30:24 435.800 - 435.900 CW/SSB
AO-27 16 Apr 04:25:18 04:30:01 36° 293° (WNW) 04:34:42 436.795 MHz FM
Sapphire 16 Apr 04:33:31 04:36:33 15° 326° (NW) 04:39:36 437.095 MHz 1200 baud AX-25 AFSK
ITAMSAT 1 16 Apr 04:37:12 04:41:39 30° 295° (WNW) 04:46:04 435.822 SSB
TMSAT-1 16 Apr 04:46:39 04:51:59 86° 104° (ESE) 04:57:17 436.925 FM
Oscar 19 16 Apr 04:52:02 04:54:32 14° 303° (WNW) 04:57:02 437.125 CW, 437.150 USB
Oscar 16 16 Apr 05:00:36 05:01:59 11° 305° (NW) 05:03:22 437.025 USB, Beacon 2401.1428
AO-Echo 16 Apr 05:23:28 05:25:48 14° 302° (WNW) 05:28:05 ?
Uribyol 2 16 Apr 05:28:49 05:30:27 11° 305° (NW) 05:32:04 436.500 FM
Uosat F 16 Apr 05:36:25 05:41:27 86° 285° (WNW) 05:46:27 435.120 FM
Gurwin Techsat 1B 16 Apr 05:36:33 05:40:59 28° 296° (WNW) 05:45:24 435.225 FM
AO-7 16 Apr 05:53:24 06:01:43 69° 105° (ESE) 06:10:00 29.400 - 29.500 MHz
KITSAT 1 16 Apr 05:56:22 06:03:55 41° 317° (NW) 06:11:32 435.175 FM
JAS-1B 16 Apr 06:11:24 06:16:52 46° 292° (WNW) 06:22:18 435.800 - 435.900 CW/SSB
STRAND 1 16 Apr 06:15:26 06:19:59 34° 66° (ENE) 06:24:33 ?
TMSAT-1 16 Apr 06:28:20 06:31:11 15° 302° (WNW) 06:34:03 436.925 FM
AO-40 16 Apr 06:36:07 11:52:18 32° 172° (S) 14:22:39 Beacon 2401.320
RS-15 16 Apr 07:04:04 07:13:56 37° 107° (ESE) 07:23:30 29.354 - 29.394 USB, Beacon 29.352 USB
Uosat F 16 Apr 07:17:22 07:19:28 13° 303° (WNW) 07:21:35 435.120 FM
Hamsat 16 Apr 07:31:54 07:36:15 71° 102° (ESE) 07:40:36 145.90 MHz
AO-7 16 Apr 07:46:56 07:53:55 32° 305° (NW) 08:00:55 29.400 - 29.500 MHz
STRAND 1 16 Apr 07:54:35 07:59:10 33° 264° (W) 08:03:45 ?
KITSAT 1 16 Apr 07:56:48 08:01:56 18° 344° (NNW) 08:07:05 435.175 FM
MaSat-1 16 Apr 08:08:10 08:10:58 68° 61° (ENE) 08:14:15 437.345 MHz
SO-67 16 Apr 08:11:10 08:14:26 35° 97° (E) 08:17:39 435.3500 MHz FM
JAS-2 16 Apr 08:14:42 08:19:53 54° 101° (E) 08:25:28 435.800 - 435.900 CW/SSB, 435.910 FM
PCSat 16 Apr 08:52:55 08:55:43 14° 33° (NNE) 08:58:31 145.825 MHz
Hamsat 16 Apr 09:09:42 09:11:41 13° 299° (WNW) 09:13:40 145.90 MHz
RS-15 16 Apr 09:14:18 09:25:32 70° 310° (NW) 09:36:31 29.354 - 29.394 USB, Beacon 29.352 USB
SO-67 16 Apr 09:45:10 09:47:19 16° 294° (WNW) 09:49:28 435.3500 MHz FM
Sapphire 16 Apr 09:50:03 09:54:41 28° 45° (NE) 09:59:17 437.095 MHz 1200 baud AX-25 AFSK
KITSAT 1 16 Apr 09:56:03 10:01:11 18° 15° (NNE) 10:06:17 435.175 FM
JAS-2 16 Apr 10:00:47 10:04:43 22° 297° (WNW) 10:08:51 435.800 - 435.900 CW/SSB, 435.910 FM
HO-68 16 Apr 10:17:51 10:24:53 55° 101° (ESE) 10:31:54 435.675 MHz FM
Oscar 11 16 Apr 10:32:11 10:36:04 31° 96° (E) 10:39:56 145.825 FM, Beacon 2401.500 USB
PCSat 16 Apr 10:34:59 10:40:21 58° 55° (NE) 10:45:41 145.825 MHz
RS-15 16 Apr 11:30:52 11:40:16 30° 339° (NNW) 11:49:35 29.354 - 29.394 USB, Beacon 29.352 USB
Sapphire 16 Apr 11:33:08 11:38:26 55° 245° (WSW) 11:43:41 437.095 MHz 1200 baud AX-25 AFSK
FUNcube-1 16 Apr 11:47:51 11:52:04 64° 101° (ESE) 11:56:19 145.950 - 145.970 MHz USB
KITSAT 1 16 Apr 11:51:37 11:59:12 41° 43° (NE) 12:06:42 435.175 FM
HO-68 16 Apr 12:06:04 12:12:16 33° 300° (WNW) 12:18:29 435.675 MHz FM
Oscar 11 16 Apr 12:08:31 12:12:10 27° 293° (WNW) 12:15:49 145.825 FM, Beacon 2401.500 USB
Saudisat 1A 16 Apr 12:10:40 12:14:46 37° 117° (ESE) 12:18:53 436.775 MHz
PCSat 16 Apr 12:19:13 12:23:21 22° 253° (WSW) 12:27:27 145.825 MHz
ITAMSAT 1 16 Apr 12:42:44 12:43:39 10° 54° (NE) 12:44:35 435.822 SSB
Oscar 19 16 Apr 12:51:41 12:55:34 22° 62° (ENE) 12:59:29 437.125 CW, 437.150 USB
Oscar 16 16 Apr 12:58:53 13:03:09 27° 64° (ENE) 13:07:26 437.025 USB, Beacon 2401.1428
AO-Echo 16 Apr 13:20:28 13:23:57 18° 61° (ENE) 13:27:24 ?
FUNcube-1 16 Apr 13:25:56 13:28:01 14° 298° (WNW) 13:30:06 145.950 - 145.970 MHz USB
Uribyol 2 16 Apr 13:28:03 13:32:20 27° 64° (ENE) 13:36:38 436.500 FM
Gurwin Techsat 1B 16 Apr 13:43:00 13:45:05 12° 56° (NE) 13:47:11 435.225 FM
KITSAT 1 16 Apr 13:47:03 13:54:57 59° 245° (WSW) 14:02:47 435.175 FM
RS-15 16 Apr 13:48:08 13:57:09 28° 15° (NNE) 14:06:11 29.354 - 29.394 USB, Beacon 29.352 USB
Saudisat 1A 16 Apr 13:50:27 13:54:26 31° 316° (NW) 13:58:26 436.775 MHz
AO-27 16 Apr 14:05:34 14:10:38 55° 71° (ENE) 14:15:42 436.795 MHz FM
ITAMSAT 1 16 Apr 14:17:03 14:22:12 68° 73° (ENE) 14:27:22 435.822 SSB
Oscar 10/S400 16 Apr 14:27:25 15:45:00 22° 266° (W) 18:14:42 145.825 - 145.975 CW/USB, Beacon 145.810 USB
Oscar 19 16 Apr 14:29:33 14:34:33 53° 260° (W) 14:39:37 437.125 CW, 437.150 USB
TMSAT-1 16 Apr 14:30:57 14:35:00 23° 62° (ENE) 14:39:04 436.925 FM
Oscar 16 16 Apr 14:37:28 14:42:19 42° 262° (W) 14:47:12 437.025 USB, Beacon 2401.1428
AO-Echo 16 Apr 14:56:58 15:02:13 68° 258° (WSW) 15:07:23 ?
AO-7 16 Apr 15:03:54 15:10:22 27° 52° (NE) 15:16:51 29.400 - 29.500 MHz
Uribyol 2 16 Apr 15:06:44 15:11:37 42° 262° (W) 15:16:31 436.500 FM
JAS-1B 16 Apr 15:07:05 15:14:03 34° 64° (ENE) 15:20:03 435.800 - 435.900 CW/SSB
Uosat F 16 Apr 15:14:15 15:18:00 22° 62° (ENE) 15:21:45 435.120 FM
Gurwin Techsat 1B 16 Apr 15:18:53 15:24:11 78° 74° (ENE) 15:29:31 435.225 FM
AO-27 16 Apr 15:46:43 15:50:29 20° 268° (W) 15:54:16 436.795 MHz FM
KITSAT 1 16 Apr 15:47:53 15:48:35 10° 264° (W) 15:49:18 435.175 FM
SO-50 16 Apr 15:49:10 15:51:19 13° 109° (ESE) 15:53:29 436.795 FM
OPAL 16 Apr 15:51:02 15:56:08 52° 102° (ESE) 16:01:13 ?
ITAMSAT 1 16 Apr 15:59:03 16:02:12 16° 270° (W) 16:05:21 435.822 SSB
RS-15 16 Apr 16:01:37 16:12:25 59° 46° (NE) 16:23:23 29.354 - 29.394 USB, Beacon 29.352 USB
TMSAT-1 16 Apr 16:09:24 16:14:34 53° 260° (W) 16:19:46 436.925 FM
ISS 16 Apr 16:43:20 16:46:11 26° 138° (SE) 16:49:03 145.800 FM
Uosat F 16 Apr 16:51:32 16:56:26 53° 260° (W) 17:01:22 435.120 FM
AO-7 16 Apr 16:54:01 17:02:19 82° 252° (WSW) 17:10:39 29.400 - 29.500 MHz
JAS-1B 16 Apr 16:56:18 17:04:28 55° 259° (W) 17:11:20 435.800 - 435.900 CW/SSB
Gurwin Techsat 1B 16 Apr 17:01:59 17:04:46 14° 272° (W) 17:07:34 435.225 FM
SO-50 16 Apr 17:26:48 17:31:16 75° 306° (NW) 17:35:49 436.795 FM
OPAL 16 Apr 17:30:36 17:34:41 24° 300° (WNW) 17:38:46 ?
RS-15 16 Apr 18:14:22 18:24:31 46° 249° (WSW) 18:34:56 29.354 - 29.394 USB, Beacon 29.352 USB
ISS 16 Apr 18:19:30 18:22:47 51° 335° (NNW) 18:26:05 145.800 FM
Hamsat 16 Apr 18:26:58 18:31:05 61° 74° (ENE) 18:35:17 145.90 MHz
UOSAT-12 16 Apr 18:27:50 18:31:44 29° 114° (ESE) 18:35:43 437.025 FM, 437.400 FM
JAS-2 16 Apr 18:29:39 18:34:32 28° 65° (ENE) 18:39:04 435.800 - 435.900 CW/SSB, 435.910 FM
SO-67 16 Apr 18:47:29 18:49:48 17° 67° (ENE) 18:52:07 435.3500 MHz FM
AO-7 16 Apr 18:51:18 18:56:19 17° 272° (W) 19:01:21 29.400 - 29.500 MHz
Saudisat 1A 16 Apr 18:57:59 18:59:24 11° 28° (NNE) 19:00:49 436.775 MHz
HO-68 16 Apr 19:06:57 19:08:44 11° 44° (NE) 19:10:31 435.675 MHz FM
SO-50 16 Apr 19:10:01 19:12:38 15° 327° (NNW) 19:15:16 436.795 FM
ISS 16 Apr 19:57:16 20:00:04 24° 355° (N) 20:02:52 145.800 FM
STRAND 1 16 Apr 20:02:47 20:07:54 75° 103° (ESE) 20:12:58 ?
Hamsat 16 Apr 20:05:43 20:07:31 12° 271° (W) 20:09:19 145.90 MHz
UOSAT-12 16 Apr 20:07:26 20:11:45 39° 313° (NW) 20:16:09 437.025 FM, 437.400 FM
JAS-2 16 Apr 20:13:50 20:19:31 43° 261° (W) 20:24:42 435.800 - 435.900 CW/SSB, 435.910 FM
SO-67 16 Apr 20:19:35 20:22:44 31° 263° (W) 20:25:54 435.3500 MHz FM
Saudisat 1A 16 Apr 20:35:46 20:40:05 49° 50° (NE) 20:44:20 436.775 MHz
HO-68 16 Apr 20:48:00 20:54:47 49° 65° (ENE) 21:01:36 435.675 MHz FM
Oscar 11 16 Apr 21:29:03 21:32:49 30° 68° (ENE) 21:36:36 145.825 FM, Beacon 2401.500 USB
ISS 16 Apr 21:34:28 21:37:30 30° 15° (NNE) 21:40:32 145.800 FM
STRAND 1 16 Apr 21:43:25 21:46:29 16° 301° (WNW) 21:49:33 ?
UOSAT-12 16 Apr 21:52:16 21:53:13 11° 335° (NNW) 21:54:10 437.025 FM, 437.400 FM
